Tracking 35331 objects as of 16-Sep-2026
HD Live streaming from Space Station
objects crossing your sky now

CICERO 8


CICERO 8 is no longer on orbit


NORAD ID: 43737
Int'l Code: 2018-096U
Launch date: November 29, 2018
Source: United States (US)
Launch site: SRIHARIKOTA (SRI)
Decay date: 2023-05-23
Your satellite tracking list
Your tracking list is empty




NASA's NSSDC Master Catalog

Two Line Element Set (TLE):
1 43737U 18096U   23136.75304770  .14838938  24870-5  26605-3 0  9998
2 43737  97.3113 234.2974 0021274 256.7565 103.1364 16.45762372250012
Source of the keplerian elements: AFSPC